Tracking 31011 objects as of 12-Jul-2025
HD Live streaming from Space Station
objects crossing your sky now

FALCON 9 R/B

Track FALCON 9 R/B now!
FALCON 9 R/B is classified as:


NORAD ID: 54260
Int'l Code: 2022-157B
Perigee: 240.3 km
Apogee: 46,621.2 km
Inclination: 21.7 °
Period: 853.3 minutes
Semi major axis: 29801 km
RCS: Unknown
Launch date: November 23, 2022
Source: United States (US)
Launch site: AIR FORCE EASTERN TEST RANGE (AFETR)
Your satellite tracking list
Your tracking list is empty




NASA's NSSDC Master Catalog

Two Line Element Set (TLE):
1 54260U 22157B   25192.46505570  .00008620  00000-0  28948-2 0  9994
2 54260  21.6581  72.4525 7781578 210.3480  61.9048  1.68748520 13584
Source of the keplerian elements: AFSPC